Regional Weather Roundup
Issued by NWS

Home | Current Version | Previous Version | Graphics & Text | Print | Product List | Glossary On
Versions: 1 2 3 4 5 6 7 8 9 10 11 12 13 14 15 16 17 18 19 20 21 22 23 24 25 26 27 28 29 30 31 32 33 34 35 36 37 38 39 40 41 42 43 44 45 46 47 48 49 50
000
ASUS43 KLOT 251210
RWRIL

ILLINOIS REGIONAL WEATHER ROUNDUP
NATIONAL WEATHER SERVICE CHICAGO/ROMEOVILLE IL
600 AM CST SUN JAN 25 2015

NOTE: "FAIR" INDICATES FEW OR NO CLOUDS BELOW 12,000 FEET WITH NO
SIGNIFICANT WEATHER AND/OR OBSTRUCTIONS TO VISIBILITY.

* THESE STATIONS ARE NOT UNDER NWS QUALITY CONTROL. THEY ALSO MAY NOT
  REPORT WEATHER SUCH AS PRECIPITATION OR FOG.

ILZ001-002-007-009-015-016-024-251300-
NORTHWEST ILLINOIS

CITY           SKY/WX    TMP DP  RH WIND       PRES   REMARKS
MOLINE         LGT RAIN  35  32  88 NE15      29.62R FOG     WCI  25
6HR MIN TEMP:  31; 6HR MAX TEMP:  35; 6HR PCP:  0.03;

STERLING*      CLOUDY    34  30  86 E18       29.67R WCI  23
SAVANNA*       LGT SNOW  33  31  92 NE18      29.68R WCI  22
$$

ILZ003-004-008-010-011-017-018-251300-
NORTH CENTRAL ILLINOIS

CITY           SKY/WX    TMP DP  RH WIND       PRES   REMARKS
ROCKFORD       CLOUDY    31  25  78 NE15G28   29.73R WCI  20
6HR MIN TEMP:  31; 6HR MAX TEMP:  34;

FREEPORT*      CLOUDY    30  28  91 NE20      29.73R WCI  18
ROCHELLE*      CLOUDY    31  30  96 NE24G32   29.69R WCI  18
DE KALB*       CLOUDY    30  29  96 NE18G24   29.70R WCI  18
PERU*          LGT RAIN  34  33  96 E16G22    29.66R WCI  24
$$

ILZ005-006-012>014-019>023-251300-
NORTHEAST ILLINOIS

CITY           SKY/WX    TMP DP  RH WIND       PRES   REMARKS
CHICAGO-OHARE  CLOUDY    33  31  92 NE20G29   29.70S WCI  21
6HR MIN TEMP:  31; 6HR MAX TEMP:  34;

CHICAGO-MIDWAY CLOUDY    37  34  89 NE9       29.70S WCI  30
6HR MIN TEMP:  34; 6HR MAX TEMP:  37;

AURORA         CLOUDY    34  31  88 NE21G29   29.68R WCI  22
6HR MIN TEMP:  33; 6HR MAX TEMP:  34;

LANSING*       CLOUDY    34  32  92 NE7       29.69S FOG     WCI  28
JOLIET*        DRIZZLE   33  32  95 NE8       29.68R WCI  26
WAUKEGAN       LGT SNOW  29  27  92 N13G26    29.75R FOG     WCI  19
6HR MIN TEMP:  27; 6HR MAX TEMP:  33; 6HR PCP: TRACE;

DUPAGE AIRPORT CLOUDY    33  31  92 NE18      29.69R FOG     WCI  22
6HR MIN TEMP:  31; 6HR MAX TEMP:  34;

KANKAKEE*      DRIZZLE   33  32  97 NE10      29.67R WCI  25
WHEELING       CLOUDY    33  30  88 NE13G24   29.74R WCI  24
6HR MIN TEMP:  31; 6HR MAX TEMP:  34;

MORRIS*        CLOUDY    34  33  96 E9G17     29.67R FOG     WCI  26
ROMEOVILLE*    DRIZZLE   34  33  95 NE13      29.68R WCI  25
NORTHERLY ISL    N/A     34  32  92 MISG        N/A
$$

LMZ740>746-251300-
SOUTHERN LAKE MICHIGAN

STATION/POSITION SKY/WX   TEMP    WIND        PRES    VSBY  WAVE
                          AIR SEA DIR/SP/G                  HT/PER
                          (F)     (DEG/KT/KT) (MB)    (MI)  (FT/S)
WAUKEGAN HARBOR            31      30/ 24/ 35   N/A
HARRISON CRIB              34      40/ 10/ 11   N/A
BURNHAM HARBOR             34      20/  7/  9   N/A
CALUMET HARBOR             33      20/  7/ 10   N/A
MICHIGAN CITY              33      30/  7/  7   N/A
$$

ILZ025>027-034>036-040-047-049-050-058-095>099-251300-
WEST-CENTRAL ILLINOIS

CITY           SKY/WX    TMP DP  RH WIND       PRES   REMARKS
QUINCY         LGT RAIN  40  36  86 CALM      29.57R
GALESBURG*     LGT RAIN  36  35  96 NE7       29.59R WCI  30
MACOMB*        LGT RAIN  37  36  99 W5        29.60R WCI  33
JACKSONVILLE*  LGT RAIN  41  39  90 CALM      29.59R
PITTSFIELD*    CLOUDY    42  38  87 SW5       29.58S
$$

ILZ028>032-037-038-041>044-048-051>054-059>061-251300-
CENTRAL ILLINOIS

CITY           SKY/WX    TMP DP  RH WIND       PRES   REMARKS
PONTIAC        MIX PCPN  34  33  97 NE13      29.64S WCI  25
BLOOMINGTON    LGT RAIN  35  33  92 SE3       29.61S
DECATUR        CLOUDY    40  33  76 SW7       29.60S
PEORIA         LGT RAIN  37  34  89 E7        29.60R FOG     WCI  32
6HR MIN TEMP:  36; 6HR MAX TEMP:  40; 6HR PCP:  0.02;

LACON*         LGT RAIN  33  32  94 NE9       29.63R WCI  26
LINCOLN*       LGT RAIN  36  33  90 E3        29.61R
SPRINGFIELD    LGT RAIN  40  35  83 CALM      29.60R
6HR MIN TEMP:  40; 6HR MAX TEMP:  44; 6HR PCP:  0.02;

TAYLORVILLE    DRIZZLE   37  36  93 W3        29.60S
$$

ILZ033-039-045-046-055>057-062-063-251300-
EAST-CENTRAL ILLINOIS

CITY           SKY/WX    TMP DP  RH WIND       PRES   REMARKS
CHAMPAIGN      CLOUDY    34  32  92 E5        29.61R WCI  30
DANVILLE*      CLOUDY    34  32  92 SE3       29.62R
RANTOUL*       CLOUDY    35  33  93 E6        29.62R WCI  30
MATTOON        CLOUDY    38  31  76 S7        29.60S WCI  33
PARIS*         CLOUDY    35  33  92 SE3       29.63R
$$

ILZ079-100>102-251300-
SOUTHWEST ILLINOIS

CITY           SKY/WX    TMP DP  RH WIND       PRES   REMARKS
BELLEVILLE     LGT RAIN  41  41  99 S5        29.61S
CAHOKIA*       CLOUDY    43  41  93 S3        29.60F
SPARTA*        CLOUDY    44  34  68 S8        29.64S
$$

ILZ064>066-069>071-074>076-080>082-084>086-088>090-092>094-251300-
SOUTH-CENTRAL ILLINOIS

CITY           SKY/WX    TMP DP  RH WIND       PRES   REMARKS
CARBONDALE     LGT RAIN  43  32  65 S14       29.66S
6HR MIN TEMP:  40; 6HR MAX TEMP:  46; 6HR PCP: TRACE;

CAIRO*         CLOUDY    41  34  76 S6        29.70F
EFFINGHAM*     RAIN      41  33  73 SW6       29.63F
MARION         CLOUDY    43  34  70 S8        29.67S
MT. VERNON     CLOUDY    39  32  75 S6        29.64F WCI  35
CENTRALIA*     DRIZZLE   40  36  84 S6        29.62S
SALEM*         RAIN      43  39  86 S7        29.63F
METROPOLIS*    PTCLDY    41  34  76 S5        29.70S
$$

ILZ067-068-072-073-078-083-087-091-251300-
SOUTHEAST ILLINOIS

CITY           SKY/WX    TMP DP  RH WIND       PRES   REMARKS
LAWRENCEVILLE  CLOUDY    39  34  82 S10       29.65F WCI  32
FLORA*         CLOUDY    39  33  80 S7        29.64R WCI  34
FAIRFIELD*     MOCLDY    40  34  78 SE3       29.64F
HARRISBURG*    MOCLDY    42  32  67 S6        29.67F
ROBINSON*      CLOUDY    39  33  80 S5        29.65F
CARMI*         MOCLDY    39  36  87 S9        29.66F WCI  33
$$

ABBREVIATIONS USED IN REMARKS
   TC - TEMPERATURE IN CELSIUS
  WCI - WIND CHILL INDEX
   HX - HEAT INDEX
  VSB - VISIBILITY
$$




USA.gov is the U.S. government's official web portal to all federal, state and local government web resources and services.